"Pseudo-MPEC" for CEQW1L2

Created 2026 Sep 3 4:35:04 UT using Find_Orb

Click here for an explanation of pseudo-MPECs

 
 Astrometry: 
     CEQW1L2*1C2026 09 02.24136522 33 23.036-15 46 08.11   ~926Z 20.33GVNEOCPG96
     CEQW1L2 1C2026 09 02.24659622 33 20.340-15 47 35.99   ~926Z 20.07GVNEOCPG96
     CEQW1L2 1C2026 09 02.25183322 33 17.582-15 49 04.98   ~926Z 20.22GVNEOCPG96
     CEQW1L2 1C2026 09 02.25705722 33 14.911-15 50 33.86   ~926Z 19.69GVNEOCPG96
     CEQW1L2 0C2026 09 02.27334722 33 09.205-15 55 13.18   ~92J5 20.46rUNEOCPI41
     CEQW1L2 1C2026 09 02.30754822 32 47.461-16 04 52.86   ~927Z 20.60GVNEOCPG96
     CEQW1L2 1C2026 09 02.30779422 32 47.346-16 04 57.76   ~927Z 20.87GVNEOCPG96
     CEQW1L2 1C2026 09 02.30803822 32 47.202-16 05 01.25   ~927Z 20.20GVNEOCPG96
     CEQW1L2 1C2026 09 02.30828322 32 47.051-16 05 05.21   ~927Z 20.11GVNEOCPG96
     CEQW1L2 0C2026 09 02.33080022 32 37.971-16 11 36.88   ~92J5 19.70iUNEOCPI41
     CEQW1L2 0C2026 09 02.35508222 32 24.637-16 18 32.26   ~92J5 19.98rUNEOCPI41

Station data:
(G96) Mt. Lemmon Survey  (N32.442729 W110.788720)
   US/Arizona.  Observer E. J. Christensen. Measurers T. Beuden, V. F.
   Carvajal, D. Fay, J. B. Fazekas, D. C. Fuls, A. R. Gibbs, A. D. Grauer, H.
   Gröller, J. K. Hogan, R. A. Kowalski, S. M. Larson, G. J. Leonard, D.
   Rankin, R. L. Seaman, F. C. Shelly, K. W. Wierzchoś. 1.5-m reflector + 10K
   CCD.
(I41) Palomar Mountain--ZTF  (N33.357336 W116.859780)  US/California.
   Observers B. T. Bolin, Z. T. F. Collaboration. Measurers B. T. Bolin,
   Z.-Y. Lin, F. J. Masci. 1.2-m f/2.4 Schmidt.

Orbital elements:  CEQW1L2
   Perihelion 2026 Nov 29.946802 +/- 1.7 TT = 22:43:23.6 (JD 2461374.446802)
Epoch 2026 Sep  2.0 TT = JDT 2461285.5   Earth MOID: 0.0061   Ve: 0.0973
M 271.998138864 +/- 2.3             (J2000 ecliptic)             AutoNEOCP
n   0.989376339 +/- 0.007           Peri.  291.228808 +/- 1.2
a   0.997458960 +/- 0.0047          Node   157.354582 +/- 0.043
e   0.19030210 +/- 0.0077           Incl.    2.855688 +/- 0.07
P   0.996/363.859d         H 28.72  G  0.15   U  9.4
q 0.807640422 +/- 0.00404    Q 1.187277498 +/- 0.0132
From 11 observations 2026 Sept. 2 (2.7 hr); mean residual 0".43
Residuals in arcseconds: 
260902 G96  .79-  .71-    260902 I41  .09+  .44+    260902 G96  .25-  .24+    
260902 G96  .14-  .23+    260902 G96  .16-  .07+    260902 I41  .29-  .40-    
260902 G96  .10-  .19+    260902 G96  .13+  .64-    260902 I41  .21+  .28+    
260902 G96  1.3+  .07+    260902 G96  .02-  .02+    

Ephemerides (geocentric):
Date (UTC) HH   RA             Dec           delta  r     elong  mag " sig PA
---- --------  ------------   ------------  ------ ------ -----  --- --------
2026 09 03 05  22 26 27.482   -20 55 49.97  .01425 1.0226 165.8 20.3 47.3  45
2026 09 03 06  22 26 06.063   -21 11 58.09  .01414 1.0225 165.5 20.3 51.2  44
2026 09 03 07  22 25 44.238   -21 28 20.74  .01404 1.0223 165.2 20.3 55.4  43
2026 09 03 08  22 25 21.993   -21 44 58.18  .01393 1.0222 164.9 20.3 59.8  42
2026 09 03 09  22 24 59.319   -22 01 50.71  .01382 1.0221 164.6 20.3 64.5  42
2026 09 03 10  22 24 36.201   -22 18 58.61  .01372 1.0219 164.2 20.3 69.4  41
2026 09 03 11  22 24 12.627   -22 36 22.17  .01361 1.0218 163.9 20.3 74.5  41
2026 09 03 12  22 23 48.584   -22 54 01.69  .01351 1.0217 163.6 20.3 80.0  40
2026 09 03 13  22 23 24.058   -23 11 57.46  .01340 1.0215 163.2 20.3 85.7  39
2026 09 03 14  22 22 59.033   -23 30 09.80  .01330 1.0214 162.9 20.3 91.8  39
2026 09 03 15  22 22 33.496   -23 48 39.01  .01320 1.0213 162.5 20.3 98.1  38
2026 09 03 16  22 22 07.431   -24 07 25.41  .01309 1.0211 162.2 20.3  105  38
2026 09 03 17  22 21 40.820   -24 26 29.33  .01299 1.0210 161.8 20.3  112  37
2026 09 03 18  22 21 13.648   -24 45 51.09  .01289 1.0209 161.5 20.3  119  37
2026 09 03 19  22 20 45.896   -25 05 31.02  .01278 1.0207 161.1 20.3  127  36
2026 09 03 20  22 20 17.546   -25 25 29.45  .01268 1.0206 160.7 20.3  135  36
2026 09 03 21  22 19 48.579   -25 45 46.74  .01258 1.0205 160.3 20.2  143  36
2026 09 03 22  22 19 18.975   -26 06 23.21  .01248 1.0204 159.9 20.2  152  35
2026 09 03 23  22 18 48.713   -26 27 19.23  .01238 1.0202 159.5 20.2  162  35
2026 09 04 00  22 18 17.770   -26 48 35.15  .01228 1.0201 159.1 20.2  171  34
2026 09 04 01  22 17 46.125   -27 10 11.31  .01218 1.0200 158.7 20.2  181  34
2026 09 04 02  22 17 13.753   -27 32 08.09  .01209 1.0198 158.3 20.2  192  34
2026 09 04 03  22 16 40.630   -27 54 25.84  .01199 1.0197 157.9 20.2  203  33
2026 09 04 04  22 16 06.729   -28 17 04.94  .01189 1.0196 157.5 20.2  215  33
2026 09 04 05  22 15 32.023   -28 40 05.75  .01179 1.0194 157.1 20.2  227  33
2026 09 04 06  22 14 56.485   -29 03 28.65  .01170 1.0193 156.6 20.2  240  33
2026 09 04 07  22 14 20.083   -29 27 14.00  .01160 1.0192 156.2 20.2  253  32
2026 09 04 08  22 13 42.787   -29 51 22.18  .01151 1.0190 155.7 20.2  267  32
2026 09 04 09  22 13 04.564   -30 15 53.57  .01141 1.0189 155.3 20.2  281  32
2026 09 04 10  22 12 25.380   -30 40 48.54  .01132 1.0188 154.8 20.2  296  32
2026 09 04 11  22 11 45.198   -31 06 07.47  .01123 1.0186 154.3 20.2  311  31
2026 09 04 12  22 11 03.982   -31 31 50.73  .01114 1.0185 153.9 20.2  328  31
2026 09 04 13  22 10 21.690   -31 57 58.69  .01104 1.0184 153.4 20.2  344  31
2026 09 04 14  22 09 38.282   -32 24 31.72  .01095 1.0182 152.9 20.2  362  31
2026 09 04 15  22 08 53.713   -32 51 30.18  .01086 1.0181 152.4 20.2  380  31
2026 09 04 16  22 08 07.938   -33 18 54.44  .01077 1.0180 151.9 20.2  399  31
2026 09 04 17  22 07 20.908   -33 46 44.84  .01069 1.0178 151.3 20.2  419  30
2026 09 04 18  22 06 32.571   -34 15 01.73  .01060 1.0177 150.8 20.2  439  30
2026 09 04 19  22 05 42.875   -34 43 45.46  .01051 1.0176 150.3 20.2  461  30
2026 09 04 20  22 04 51.761   -35 12 56.34  .01043 1.0174 149.7 20.1  483  30
2026 09 04 21  22 03 59.170   -35 42 34.69  .01034 1.0173 149.2 20.1  506  30
2026 09 04 22  22 03 05.038   -36 12 40.82  .01026 1.0172 148.6 20.1  529  30
2026 09 04 23  22 02 09.300   -36 43 15.01  .01017 1.0170 148.1 20.1  554  30
2026 09 05 00  22 01 11.883   -37 14 17.54  .01009 1.0169 147.5 20.1  579  30
2026 09 05 01  22 00 12.713   -37 45 48.66  .01001 1.0167 146.9 20.1  606  30
2026 09 05 02  21 59 11.711   -38 17 48.61  .00993 1.0166 146.3 20.1  633  30
2026 09 05 03  21 58 08.793   -38 50 17.59  .00985 1.0165 145.7 20.1  661  30
2026 09 05 04  21 57 03.869   -39 23 15.78  .00977 1.0163 145.1 20.1  690  30